TimeMDT,TemperatureF,Dew PointF,Humidity,Sea Level PressureIn,VisibilityMPH,Wind Direction,Wind SpeedMPH,Gust SpeedMPH,PrecipitationIn,Events,Conditions,WindDirDegrees,DateUTC
12:53 AM,35.1,23.0,61,30.06,10.0,Calm,Calm,-,N/A,,Clear,0,2011-10-30 06:53:00
1:53 AM,34.0,21.9,61,30.05,10.0,Calm,Calm,-,N/A,,Clear,0,2011-10-30 07:53:00
2:53 AM,32.0,21.9,66,30.07,10.0,NW,6.9,-,N/A,,Clear,310,2011-10-30 08:53:00
3:53 AM,34.0,21.0,59,30.05,10.0,West,8.1,-,N/A,,Clear,270,2011-10-30 09:53:00
4:53 AM,30.0,21.0,69,30.09,10.0,East,5.8,-,N/A,,Clear,100,2011-10-30 10:53:00
5:53 AM,28.9,21.0,72,30.14,10.0,Calm,Calm,-,N/A,,Clear,0,2011-10-30 11:53:00
6:53 AM,27.0,19.9,75,30.16,10.0,East,4.6,-,N/A,,Clear,100,2011-10-30 12:53:00
7:53 AM,28.0,19.9,72,30.17,10.0,Variable,3.5,-,N/A,,Clear,0,2011-10-30 13:53:00
8:53 AM,33.1,23.0,66,30.20,10.0,Variable,4.6,-,N/A,,Clear,0,2011-10-30 14:53:00
9:53 AM,36.0,23.0,59,30.20,10.0,Calm,Calm,-,N/A,,Clear,0,2011-10-30 15:53:00
10:53 AM,44.1,23.0,43,30.19,10.0,Calm,Calm,-,N/A,,Clear,0,2011-10-30 16:53:00
11:53 AM,50.0,24.1,36,30.16,10.0,Calm,Calm,-,N/A,,Clear,0,2011-10-30 17:53:00
12:53 PM,57.0,25.0,29,30.12,10.0,ESE,5.8,-,N/A,,Clear,110,2011-10-30 18:53:00
1:53 PM,60.1,25.0,26,30.08,10.0,East,4.6,-,N/A,,Clear,100,2011-10-30 19:53:00
2:53 PM,63.0,21.0,20,30.06,10.0,Variable,3.5,-,N/A,,Clear,0,2011-10-30 20:53:00
3:53 PM,63.0,21.9,21,30.04,10.0,Variable,3.5,-,N/A,,Clear,0,2011-10-30 21:53:00
4:53 PM,63.0,23.0,22,30.04,10.0,North,3.5,-,N/A,,Clear,10,2011-10-30 22:53:00
5:53 PM,55.0,26.1,33,30.08,10.0,SW,8.1,-,N/A,,Clear,230,2011-10-30 23:53:00
6:53 PM,53.1,24.1,32,30.09,10.0,SSW,5.8,-,N/A,,Clear,200,2011-10-31 00:53:00
7:53 PM,48.0,26.1,42,30.11,10.0,North,3.5,-,N/A,,Clear,350,2011-10-31 01:53:00
8:53 PM,43.0,26.1,51,30.10,10.0,NNW,9.2,-,N/A,,Clear,340,2011-10-31 02:53:00
9:53 PM,45.0,25.0,46,30.09,10.0,Calm,Calm,-,N/A,,Clear,0,2011-10-31 03:53:00
10:53 PM,46.9,21.9,37,30.05,10.0,SW,4.6,-,N/A,,Clear,220,2011-10-31 04:53:00
11:53 PM,37.0,25.0,62,30.05,10.0,SE,3.5,-,N/A,,Clear,130,2011-10-31 05:53:00